Weather History for Troy, MI

Change the Weather History Date:

Tuesday, February 12, 2013

  Actual Average (KDET) Record (KDET)
Temperature  
Mean Temperature 34 °F -  
Max Temperature 35 °F 31 °F 60 °F (1999)
Min Temperature 32 °F 17 °F -2 °F (1981)
Degree Days  
Heating Degree Days 32    
Moisture  
Dew Point 25 °F    
Average Humidity 68    
Maximum Humidity 76    
Minimum Humidity 62    
Precipitation  
Precipitation 0.00 in - - ()
Sea Level Pressure  
Sea Level Pressure 29.97 in    
Wind  
Wind Speed 12 mph (West)    
Max Wind Speed 17 mph    
Max Gust Speed 24 mph    
Visibility 10 miles    
Events      
Averages and records for this station are not official NWS values.
T = Trace of Precipitation, MM = Missing Value Source: NWS Daily Summary

Daily Weather History Graph

Daily Weather History Graph

Search for Another Location

Airport:

Trip Planner

Search our weather history database for the weather conditions in past years. The results will help you decide how hot, cold, wet, or windy it might be!

Date:

Astronomy

Feb. 12, 2013 Rise Set
Actual Time 7:33 AM EST 6:01 PM EST
Civil Twilight 7:04 AM EST 6:30 PM EST
Nautical Twilight 6:31 AM EST 7:03 PM EST
Astronomical Twilight 5:58 AM EST 7:36 PM EST
Moon 8:25 AM EST (2/12) 9:06 PM EST (2/12)
Length of Visible Light 11h 26m
Length of Day
10h 28m
Waxing Crescent, 7% of the Moon is Illuminated
Feb 12
Waxing Crescent
Feb 17
First Quarter
Feb 25
Full
Mar 4
Last Quarter
Mar 11
New

Hourly Weather History & Observations

Time (EST) Temp. Windchill Dew Point Humidity Pressure Visibility Wind Dir Wind Speed Gust Speed Precip Events Conditions
12:15 AM 35.4 °F 25.6 °F 27.9 °F 74% 29.87 in 10.0 mi West 16.1 mph 23.0 mph N/A   Overcast
12:34 AM 35.4 °F 25.3 °F 27.9 °F 74% 29.88 in 10.0 mi West 17.3 mph 23.0 mph N/A   Overcast
12:55 AM 35.1 °F 26.4 °F 28.0 °F 76% 29.89 in 10.0 mi West 12.7 mph 20.7 mph N/A   Overcast
1:14 AM 35.2 °F 27.1 °F 27.9 °F 74% 29.89 in 10.0 mi West 11.5 mph 17.3 mph N/A   Overcast
1:34 AM 35.1 °F 27.9 °F 26.1 °F 70% 29.90 in 10.0 mi West 9.2 mph 24.2 mph N/A   Overcast
1:55 AM 34.9 °F 27.1 °F 26.2 °F 71% 29.90 in 10.0 mi West 10.4 mph 16.1 mph N/A   Overcast
2:14 AM 34.7 °F 25.1 °F 24.8 °F 67% 29.91 in 10.0 mi West 15.0 mph 23.0 mph N/A   Overcast
2:34 AM 34.7 °F 25.9 °F 24.4 °F 66% 29.92 in 10.0 mi West 12.7 mph 20.7 mph N/A   Overcast
2:55 AM 34.3 °F 25.9 °F 24.8 °F 68% 29.93 in 10.0 mi West 11.5 mph 18.4 mph N/A   Overcast
3:14 AM 34.2 °F 25.2 °F 25.2 °F 70% 29.94 in 10.0 mi West 12.7 mph 21.9 mph N/A   Overcast
3:34 AM 34.2 °F 24.8 °F 25.3 °F 70% 29.94 in 10.0 mi West 13.8 mph 17.3 mph N/A   Overcast
3:54 AM 34.2 °F 25.7 °F 24.8 °F 69% 29.94 in 10.0 mi West 11.5 mph 19.6 mph N/A   Overcast
4:14 AM 33.8 °F 25.3 °F 24.8 °F 70% 29.95 in 10.0 mi West 11.5 mph 20.7 mph N/A   Overcast
4:34 AM 33.8 °F 25.8 °F 24.8 °F 70% 29.96 in 10.0 mi West 10.4 mph 20.7 mph N/A   Overcast
4:54 AM 33.8 °F 25.8 °F 24.8 °F 70% 29.96 in 10.0 mi West 10.4 mph 19.6 mph N/A   Overcast
5:15 AM 33.8 °F 24.8 °F 24.4 °F 69% 29.97 in 10.0 mi West 12.7 mph 20.7 mph N/A   Overcast
5:34 AM 33.8 °F 23.5 °F 24.4 °F 69% 29.98 in 10.0 mi West 16.1 mph 24.2 mph N/A   Overcast
5:54 AM 33.8 °F 24.8 °F 23.9 °F 67% 29.98 in 10.0 mi West 12.7 mph 19.6 mph N/A   Overcast
6:14 AM 33.8 °F 26.4 °F 24.6 °F 69% 29.99 in 10.0 mi West 9.2 mph - N/A   Overcast
6:34 AM 33.6 °F 26.2 °F 25.2 °F 71% 29.99 in 10.0 mi West 9.2 mph - N/A   Overcast
6:54 AM 33.8 °F 24.3 °F 25.0 °F 70% 30.00 in 10.0 mi West 13.8 mph 23.0 mph N/A   Overcast
7:14 AM 33.8 °F 25.8 °F 25.5 °F 72% 30.01 in 10.0 mi West 10.4 mph - N/A   Overcast
7:35 AM 33.8 °F 25.8 °F 24.8 °F 70% 30.02 in 10.0 mi West 10.4 mph 16.1 mph N/A   Overcast
7:54 AM 33.8 °F 25.3 °F 24.8 °F 70% 30.02 in 10.0 mi West 11.5 mph 17.3 mph N/A   Overcast
8:15 AM 33.8 °F 23.9 °F 24.6 °F 69% 30.03 in 10.0 mi West 15.0 mph 23.0 mph N/A   Overcast
8:34 AM 33.8 °F 25.8 °F 24.3 °F 68% 30.03 in 10.0 mi West 10.4 mph 19.6 mph N/A   Overcast
8:54 AM 33.8 °F 26.4 °F 24.4 °F 69% 30.04 in 10.0 mi West 9.2 mph - N/A   Overcast
9:15 AM 33.8 °F 25.3 °F 24.6 °F 69% 30.04 in 10.0 mi West 11.5 mph 17.3 mph N/A   Overcast
9:34 AM 33.8 °F 25.8 °F 24.4 °F 69% 30.04 in 10.0 mi West 10.4 mph 18.4 mph N/A   Overcast
9:55 AM 33.8 °F 25.8 °F 24.8 °F 70% 30.05 in 10.0 mi West 10.4 mph 17.3 mph N/A   Overcast
10:14 AM 33.8 °F 25.8 °F 24.6 °F 69% 30.04 in 10.0 mi West 10.4 mph 18.4 mph N/A   Overcast
10:34 AM 34.2 °F 24.8 °F 24.8 °F 69% 30.05 in 10.0 mi West 13.8 mph - N/A   Overcast
10:55 AM 34.0 °F 26.0 °F 24.4 °F 68% 30.05 in 10.0 mi West 10.4 mph 18.4 mph N/A   Overcast
11:14 AM 34.2 °F 26.2 °F 24.3 °F 67% 30.04 in 10.0 mi West 10.4 mph 17.3 mph N/A   Overcast
11:35 AM 34.3 °F 27.7 °F 24.8 °F 68% 30.03 in 10.0 mi West 8.1 mph - N/A   Overcast
11:54 AM 34.7 °F 27.5 °F 25.2 °F 68% 30.03 in 10.0 mi WSW 9.2 mph - N/A   Overcast
12:14 PM 34.7 °F 28.1 °F 25.3 °F 69% 30.04 in 10.0 mi WSW 8.1 mph - N/A   Overcast
12:35 PM 34.3 °F 25.5 °F 25.9 °F 71% 30.03 in 10.0 mi WSW 12.7 mph - N/A   Overcast
12:54 PM 34.7 °F 25.9 °F 25.5 °F 69% 30.02 in 10.0 mi WSW 12.7 mph 17.3 mph N/A   Overcast
1:14 PM 34.7 °F 26.4 °F 24.8 °F 67% 30.02 in 10.0 mi WSW 11.5 mph 16.1 mph N/A   Overcast
1:34 PM 35.1 °F 25.5 °F 23.9 °F 64% 30.01 in 10.0 mi West 15.0 mph - N/A   Overcast
1:54 PM 35.2 °F 28.1 °F 24.4 °F 65% 29.98 in 10.0 mi West 9.2 mph 16.1 mph N/A   Overcast
2:15 PM 35.1 °F 30.1 °F 25.2 °F 67% 29.95 in 10.0 mi West 5.8 mph - N/A   Overcast
2:34 PM 35.2 °F 27.6 °F 25.0 °F 66% 29.95 in 10.0 mi West 10.4 mph - N/A   Overcast
2:54 PM 35.6 °F 28.0 °F 23.9 °F 62% 29.95 in 10.0 mi West 10.4 mph 16.1 mph N/A   Overcast
3:14 PM 35.6 °F 28.6 °F 23.9 °F 62% 29.96 in 10.0 mi WSW 9.2 mph - N/A   Overcast
3:34 PM 35.8 °F 28.8 °F 24.1 °F 62% 29.97 in 10.0 mi WSW 9.2 mph - N/A   Overcast
3:55 PM 35.8 °F 28.8 °F 24.6 °F 64% 29.98 in 10.0 mi WSW 9.2 mph - N/A   Overcast
4:14 PM 35.6 °F 29.2 °F 24.4 °F 64% 29.98 in 10.0 mi West 8.1 mph - N/A   Overcast
4:34 PM 35.6 °F 30.7 °F 24.3 °F 63% 29.97 in 10.0 mi West 5.8 mph - N/A   Overcast
4:55 PM 35.6 °F 28.0 °F 24.6 °F 64% 29.97 in 10.0 mi WSW 10.4 mph - N/A   Overcast
5:14 PM 35.6 °F 29.2 °F 23.9 °F 62% 29.98 in 10.0 mi West 8.1 mph - N/A   Overcast
5:34 PM 35.1 °F 27.9 °F 24.3 °F 65% 29.98 in 10.0 mi WSW 9.2 mph 18.4 mph N/A   Overcast
5:55 PM 34.7 °F 26.9 °F 24.1 °F 65% 29.99 in 10.0 mi SW 10.4 mph 17.3 mph N/A   Overcast
6:14 PM 34.5 °F 27.3 °F 24.3 °F 66% 29.99 in 10.0 mi WSW 9.2 mph 17.3 mph N/A   Overcast
6:34 PM 34.2 °F 28.2 °F 24.4 °F 68% 29.99 in 10.0 mi WSW 6.9 mph 16.1 mph N/A   Overcast
6:55 PM 34.3 °F 30.2 °F 23.9 °F 66% 29.99 in 10.0 mi West 4.6 mph - N/A   Overcast
7:14 PM 34.2 °F 29.0 °F 23.7 °F 66% 29.98 in 10.0 mi West 5.8 mph - N/A   Overcast
7:35 PM 34.2 °F 29.0 °F 23.9 °F 66% 29.97 in 10.0 mi West 5.8 mph - N/A   Overcast
7:54 PM 34.2 °F 30.0 °F 24.3 °F 67% 29.97 in 10.0 mi WSW 4.6 mph - N/A   Overcast
8:14 PM 33.8 °F 28.6 °F 24.3 °F 68% 29.96 in 10.0 mi West 5.8 mph - N/A   Overcast
8:35 PM 34.0 °F 28.8 °F 24.6 °F 69% 29.97 in 10.0 mi West 5.8 mph - N/A   Overcast
8:54 PM 33.8 °F 27.7 °F 24.8 °F 70% 29.95 in 10.0 mi West 6.9 mph - N/A   Overcast
9:14 PM 33.8 °F 25.8 °F 24.1 °F 68% 29.95 in 10.0 mi West 10.4 mph - N/A   Overcast
9:34 PM 33.3 °F 26.4 °F 23.5 °F 68% 29.95 in 10.0 mi WSW 8.1 mph - N/A   Overcast
9:54 PM 33.1 °F 26.9 °F 23.0 °F 66% 29.94 in 10.0 mi West 6.9 mph - N/A   Overcast
10:15 PM 32.9 °F 24.7 °F 22.8 °F 66% 29.94 in 10.0 mi West 10.4 mph - N/A   Overcast
10:34 PM 32.2 °F 26.7 °F 22.1 °F 66% 29.94 in 10.0 mi West 5.8 mph - N/A   Overcast
10:54 PM 32.2 °F 25.0 °F 22.1 °F 66% 29.93 in 10.0 mi West 8.1 mph - N/A   Overcast
11:14 PM 32.2 °F 23.8 °F 22.5 °F 67% 29.93 in 10.0 mi West 10.4 mph - N/A   Overcast
11:34 PM 32.0 °F 24.8 °F 22.1 °F 67% 29.93 in 10.0 mi West 8.1 mph - N/A   Overcast
11:55 PM 32.0 °F 23.6 °F 22.6 °F 68% 29.93 in 10.0 mi NW 10.4 mph - N/A   Overcast